Location: Recife
(8.0585°S, 34.8848°W)
Time: 11:31:13
(UTC-03:00)

Vanguard 2 Rocket - Pass Details

Date: 16 April 2026
Orbit: 553 x 3286 km, 32.9° (Epoch: 8 May)

Event Time Altitude Azimuth Distance (km) Brightness Sun altitude
Rises 10:37:32 0° 231° (SW) 5,956 10.9 68.9°
Reaches altitude 10° 10:41:42 10° 222° (SW) 5,293 10.7 69.4°
Maximum altitude 10:56:52 36° 160° (SSE) 4,310 10.6 70.8°
Drops below altitude 10° 11:14:23 10° 99° (E) 6,110 11.2 71.6°
Sets 11:19:35 0° 91° (E) 6,938 11.4 71.7°
